WESTFORD NEEDLES, 628

Orbit data source: Space-Track

WESTFORD NEEDLES, 628 is space debris in LEO originally from a launch on Thu, 09 May 1963 UTC launched from the Air Force Western Test Range (AFWTR). Debris objects in space refer to the collection of defunct objects orbiting the Earth. Examples of debris include non-operational satellites, rocket bodies, and fragments generated from explosions, collisions, or faulty payload assembly.

Loading next visibility...
Identifier
628, 1963-014F
Orbit
LEO
Country
Flag of USUS
Related business
Manufacturer
Unknown
Mission
Spacecraft
Bus & Motor
Unknown
Mass
~10 kg wet, ~10 kg dry
Launch date (UTC)
1963-05-09 (63 years ago)
Launch vehicle
Unknown
Launch site
Air Force Western Test Range (AFWTR)
Object type
Payload
Rocket body
Debris
Shape & HBR
Unknown
Radar Cross Section
Medium (>0.1 m² and <1 m²)

Expand to show TLE details & history
Last TLE update: 3 days ago

TLE from 3 days ago
0 WESTFORD NEEDLES
1 00628U 63014F   26060.36962819  .00000003  00000-0  00000-0 0  9991
2 00628  87.3383 213.4297 0018491 244.4316 115.4626  8.63373981979654
Epoch: 2026-03-01T08:52Z
TLE epoch observation values (Epoch: 2026-03-01T08:52:15.875Z)
Latitude
0.00002°
Longitude
-78.81482°
Altitude
3,669.022 km
Speed
6.297 km/s
True Right ascension
14h 13m 43s
True Declination
0° 00' 00"
Sunlit
Object was in daylight at epoch
Visualization orbit readout
Latitude
Unknown
Longitude
Unknown
Altitude
Unknown
Speed
Unknown
Apparent Right ascension
Unknown
Apparent Declination
Unknown
Sunlit
N/A
Visualization observer readout
Local Sidereal Time
19:21:40
Azimuth
Unknown
Elevation
Unknown
Doppler factor
Unknown
Orbital elements
Apogee altitude
3,675.213 km
Perigee altitude
3,638.102 km
Semi-major axis
10,034.795 km
Eccentricity
0.00185
Inclination
87.3383°
RAAN
213.4297°
Arg. of periapsis
244.4316°
True anomaly
115.65372°
Mean anomaly
115.4626°
Eccentric anomaly
115.55818°
Mean motion
2.15914 °/min
Orbital period
166.73 mins
BSTAR
0
Loading maneuver chart data...
Computing Atmospheric mass density...

Documentation

Showing up to 5 results
|